Winnsboro, SC

10:37 PM EST on December 14, 2017 (GMT -0500)
Fairfield County

Weather History for KFDW - March, 2014

Change the Weather History Date:

Monday, March 17, 2014

  Actual Average Record
Temperature  
Mean Temperature 43 °F -  
Max Temperature 53 °F 64 °F 86 °F (2012)
Min Temperature 33 °F 38 °F 32 °F (2017)
Degree Days  
Heating Degree Days 22    
Moisture  
Dew Point 39 °F    
Average Humidity 100    
Maximum Humidity 100    
Minimum Humidity 100    
Precipitation  
Precipitation 0.00 in - - ()
Sea Level Pressure  
Sea Level Pressure 29.81 in    
Wind  
Wind Speed 8 mph (NNE)    
Max Wind Speed 16 mph    
Max Gust Speed 22 mph    
Visibility 6 miles    
Events Rain    
Averages and records for this station are not official NWS values.
T = Trace of Precipitation, MM = Missing Value Source: NWS Daily Summary

Daily Weather History Graph

Daily Weather History Graph

Search for Another Location

Airport or City:

Trip Planner

Search our weather history database for the weather conditions in past years. The results will help you decide how hot, cold, wet, or windy it might be!

Date:

Astronomy

Mar. 17, 2014 Rise Set
Actual Time 7:32 AM EDT 7:33 PM EDT
Civil Twilight 7:07 AM EDT 7:58 PM EDT
Nautical Twilight 6:38 AM EDT 8:27 PM EDT
Astronomical Twilight 6:08 AM EDT 8:57 PM EDT
Moon 8:44 PM EDT (3/17) 7:50 AM EDT (3/17)
Length of Visible Light 12h 51m
Length of Day
12h 01m
Full, 99% of the Moon is Illuminated
Mar 17
Full
Mar 23
Last Quarter
Mar 30
New
Apr 7
First Quarter
Apr 15
Full

Hourly Weather History & Observations

Time (EDT) Temp. Windchill Dew Point Humidity Pressure Visibility Wind Dir Wind Speed Gust Speed Precip Events Conditions
12:15 AM 53.6 °F - 53.6 °F 100% 29.74 in 5.0 mi Calm Calm - N/A   Overcast
12:35 AM 53.6 °F - 53.6 °F 100% 29.75 in 3.0 mi NNW 5.8 mph - N/A   Drizzle
12:55 AM 51.8 °F - 51.8 °F 100% 29.75 in 5.0 mi Calm Calm - N/A   Light Drizzle
1:15 AM 51.8 °F - 51.8 °F 100% 29.75 in 7.0 mi NNW 9.2 mph - N/A   Overcast
1:35 AM 50.0 °F - 50.0 °F 100% 29.75 in 10.0 mi North 9.2 mph - N/A   Overcast
1:55 AM 50.0 °F - 50.0 °F 100% 29.74 in 7.0 mi North 10.4 mph - N/A   Overcast
2:15 AM 50.0 °F - 50.0 °F 100% 29.75 in 7.0 mi North 5.8 mph - N/A   Overcast
2:35 AM 48.2 °F - 48.2 °F 100% 29.75 in 5.0 mi North 9.2 mph - N/A   Drizzle
2:55 AM 46.4 °F 41.9 °F 46.4 °F 100% 29.75 in 5.0 mi North 9.2 mph - N/A   Light Drizzle
3:15 AM 46.4 °F 41.9 °F 46.4 °F 100% 29.75 in 5.0 mi North 9.2 mph 17.3 mph N/A   Light Drizzle
3:35 AM 46.4 °F 41.5 °F 46.4 °F 100% 29.75 in 7.0 mi North 10.4 mph 16.1 mph N/A   Overcast
3:55 AM 44.6 °F 40.7 °F 44.6 °F 100% 29.75 in 10.0 mi NNE 6.9 mph 17.3 mph N/A   Overcast
4:15 AM 42.8 °F 37.5 °F 42.8 °F 100% 29.74 in 10.0 mi North 9.2 mph 19.6 mph N/A   Overcast
4:35 AM 42.8 °F 37.5 °F 42.8 °F 100% 29.73 in 10.0 mi NNE 9.2 mph 18.4 mph N/A   Overcast
4:55 AM 41.0 °F 34.7 °F 41.0 °F 100% 29.73 in 7.0 mi NNE 10.4 mph 21.9 mph N/A   Overcast
5:15 AM 41.0 °F 36.4 °F 41.0 °F 100% 29.74 in 7.0 mi North 6.9 mph 17.3 mph N/A   Overcast
5:35 AM 41.0 °F 34.3 °F 41.0 °F 100% 29.75 in 10.0 mi NNE 11.5 mph 19.6 mph N/A   Overcast
5:55 AM 41.0 °F 33.9 °F 41.0 °F 100% 29.75 in 10.0 mi NE 12.7 mph 19.6 mph N/A   Overcast
6:15 AM 39.2 °F 31.6 °F 39.2 °F 100% 29.75 in 10.0 mi NE 12.7 mph 17.3 mph N/A   Overcast
6:35 AM 39.2 °F 32.0 °F 39.2 °F 100% 29.75 in 4.0 mi NNE 11.5 mph - N/A   Overcast
6:55 AM 39.2 °F 33.0 °F 39.2 °F 100% 29.77 in 5.0 mi NNE 9.2 mph - N/A   Overcast
7:15 AM 37.4 °F 32.8 °F 37.4 °F 100% 29.79 in 5.0 mi North 5.8 mph - N/A   Overcast
7:35 AM 37.4 °F 29.8 °F 37.4 °F 100% 29.78 in 5.0 mi NE 11.5 mph 18.4 mph N/A   Overcast
7:55 AM 37.4 °F 30.8 °F 37.4 °F 100% 29.80 in 5.0 mi NNE 9.2 mph - N/A   Overcast
8:15 AM 37.4 °F 29.8 °F 37.4 °F 100% 29.78 in 4.0 mi NE 11.5 mph - N/A   Overcast
8:35 AM 37.4 °F 29.8 °F 37.4 °F 100% 29.77 in 4.0 mi NE 11.5 mph 19.6 mph N/A   Overcast
8:55 AM 37.4 °F 29.8 °F 37.4 °F 100% 29.78 in 4.0 mi NNE 11.5 mph 19.6 mph N/A   Overcast
9:15 AM 37.4 °F 31.4 °F 37.4 °F 100% 29.80 in 7.0 mi NE 8.1 mph 18.4 mph N/A   Overcast
9:35 AM 37.4 °F 28.2 °F 37.4 °F 100% 29.80 in 7.0 mi ENE 16.1 mph 20.7 mph N/A   Overcast
9:55 AM 37.4 °F 30.8 °F 37.4 °F 100% 29.82 in 10.0 mi NE 9.2 mph 17.3 mph N/A   Overcast
10:15 AM 37.4 °F 32.1 °F 37.4 °F 100% 29.81 in 5.0 mi NNE 6.9 mph 10.4 mph N/A   Overcast
10:35 AM 37.4 °F 29.8 °F 37.4 °F 100% 29.83 in 3.0 mi NNE 11.5 mph 18.4 mph N/A   Overcast
10:55 AM 37.4 °F 32.1 °F 37.4 °F 100% 29.84 in 4.0 mi North 6.9 mph - N/A   Overcast
11:15 AM 37.4 °F 30.8 °F 37.4 °F 100% 29.85 in 2.5 mi NNE 9.2 mph - N/A   Overcast
11:35 AM 37.4 °F 29.3 °F 37.4 °F 100% 29.84 in 3.0 mi NE 12.7 mph 17.3 mph N/A   Light Drizzle
11:55 AM 37.4 °F 32.1 °F 37.4 °F 100% 29.86 in 3.0 mi NE 6.9 mph - N/A   Overcast
12:15 PM 37.4 °F 30.3 °F 37.4 °F 100% 29.86 in 4.0 mi NE 10.4 mph - N/A   Overcast
12:35 PM 37.4 °F 29.8 °F 37.4 °F 100% 29.85 in 4.0 mi NNE 11.5 mph 17.3 mph N/A   Overcast
12:55 PM 37.4 °F 30.8 °F 37.4 °F 100% 29.86 in 3.0 mi NE 9.2 mph 18.4 mph N/A   Overcast
1:15 PM 37.4 °F 33.8 °F 37.4 °F 100% 29.86 in 3.0 mi NNE 4.6 mph - N/A   Overcast
1:35 PM 35.6 °F 29.2 °F 35.6 °F 100% 29.85 in 3.0 mi NE 8.1 mph - N/A   Overcast
1:55 PM 35.6 °F 29.9 °F 35.6 °F 100% 29.84 in 3.0 mi NNE 6.9 mph - N/A   Overcast
2:15 PM 35.6 °F 29.9 °F 35.6 °F 100% 29.83 in 4.0 mi NNE 6.9 mph - N/A   Overcast
2:35 PM 35.6 °F 28.6 °F 35.6 °F 100% 29.84 in 7.0 mi NE 9.2 mph - N/A   Overcast
2:55 PM 35.6 °F 28.0 °F 35.6 °F 100% 29.82 in 10.0 mi NE 10.4 mph 16.1 mph N/A   Overcast
3:15 PM 35.6 °F 29.2 °F 35.6 °F 100% 29.84 in 5.0 mi NNE 8.1 mph - N/A Rain Light Rain
3:35 PM 35.6 °F 30.7 °F 35.6 °F 100% 29.84 in 4.0 mi NNE 5.8 mph - N/A Rain Light Rain
3:55 PM 35.6 °F 28.6 °F 35.6 °F 100% 29.82 in 5.0 mi NE 9.2 mph - N/A Rain Light Rain
4:15 PM 35.6 °F 28.6 °F 35.6 °F 100% 29.83 in 7.0 mi NNE 9.2 mph - N/A Rain Rain
4:35 PM 35.6 °F 28.0 °F 35.6 °F 100% 29.82 in 10.0 mi NE 10.4 mph - N/A   Drizzle
4:55 PM 35.6 °F 28.6 °F 35.6 °F 100% 29.81 in 10.0 mi NNE 9.2 mph - N/A   Overcast
5:15 PM 35.6 °F 30.7 °F 35.6 °F 100% 29.83 in 10.0 mi NNE 5.8 mph - N/A   Light Drizzle
5:35 PM 35.6 °F 27.5 °F 35.6 °F 100% 29.81 in 10.0 mi NE 11.5 mph 16.1 mph N/A Rain Light Rain
5:55 PM 35.6 °F 28.0 °F 35.6 °F 100% 29.81 in 10.0 mi NNE 10.4 mph 16.1 mph N/A Rain Light Rain
6:15 PM 35.6 °F 28.6 °F 35.6 °F 100% 29.84 in 10.0 mi NNE 9.2 mph - N/A   Drizzle
6:35 PM 35.6 °F 27.1 °F 35.6 °F 100% 29.83 in 10.0 mi NE 12.7 mph 17.3 mph N/A   Drizzle
6:55 PM 35.6 °F 29.9 °F 35.6 °F 100% 29.83 in 5.0 mi NE 6.9 mph - N/A Rain Rain
7:15 PM 33.8 °F 27.0 °F 33.8 °F 100% 29.85 in 7.0 mi NNE 8.1 mph - N/A   Light Drizzle
7:35 PM 33.8 °F 26.4 °F 33.8 °F 100% 29.85 in 7.0 mi NE 9.2 mph 16.1 mph N/A Rain Light Rain
7:55 PM 33.8 °F 27.7 °F 33.8 °F 100% 29.85 in 5.0 mi NE 6.9 mph - N/A Rain Rain
8:15 PM 33.8 °F 26.4 °F 33.8 °F 100% 29.86 in 4.0 mi NNE 9.2 mph - N/A   Drizzle
8:35 PM 33.8 °F 25.8 °F 33.8 °F 100% 29.86 in 10.0 mi NE 10.4 mph - N/A   Light Drizzle
8:55 PM 33.8 °F 26.4 °F 33.8 °F 100% 29.87 in 7.0 mi NNE 9.2 mph - N/A Rain Light Rain
9:15 PM 33.8 °F 26.4 °F 33.8 °F 100% 29.88 in 4.0 mi NNE 9.2 mph - N/A Rain Light Rain
9:35 PM 33.8 °F 28.6 °F 33.8 °F 100% 29.89 in 7.0 mi NNE 5.8 mph - N/A   Drizzle
9:55 PM 33.8 °F 27.7 °F 33.8 °F 100% 29.90 in 4.0 mi NNE 6.9 mph - N/A   Heavy Drizzle
10:15 PM 33.8 °F 26.4 °F 33.8 °F 100% 29.90 in 2.5 mi NNE 9.2 mph - N/A Rain Heavy Rain
10:35 PM 33.8 °F 30.8 °F 33.8 °F 100% 29.90 in 4.0 mi NNE 3.5 mph - N/A   Heavy Drizzle
10:55 PM 33.8 °F 28.6 °F 33.8 °F 100% 29.92 in 4.0 mi NNE 5.8 mph - N/A   Heavy Drizzle
11:15 PM 33.8 °F 27.7 °F 33.8 °F 100% 29.93 in 2.5 mi NE 6.9 mph - N/A Rain Heavy Rain
11:35 PM 33.8 °F 27.7 °F 33.8 °F 100% 29.93 in 3.0 mi NNE 6.9 mph - N/A Rain Light Rain
11:55 PM 33.8 °F 26.4 °F 33.8 °F 100% 29.93 in 10.0 mi NE 9.2 mph - N/A   Light Drizzle